User: anonymous   Login
Location: Maiden
(35.5760°N, 81.2120°W)
Time: 17:09:41
(UTC-04:00)
Language:

Cosmos 2151 - Orbit

View from above orbital plane
View from above orbital plane
View from above satellite
View from above satellite

Ground track
Ground track

The orbit data is extracted from the following two-line orbital elements,

1 21422U 91042A   16209.94925536 +.00000281 +00000-0 +25394-4 0  9996
2 21422 082.4997 194.9535 0012844 300.8281 059.1674 14.91663231339080
Epoch (UTC): 27 July 2016 22:46:55
Eccentricity: 0.0012844
inclination: 82.4997°
perigee height: 584 km
apogee height: 602 km
right ascension of ascending node: 194.9535°
argument of perigee: 300.8281°
revolutions per day: 14.91663231
mean anomaly at epoch: 59.1674°
orbit number at epoch: 33908

The dashed part of the orbit path shows where the satellite is in the earth's shadow,  

DLR